Erie, PA

11:43 AM EDT on April 21, 2018 (GMT -0400)
Erie International

Weather History for KERI - September, 2013

Change the Weather History Date:

Saturday, September 21, 2013

  Actual Average Record
Temperature  
Mean Temperature 64 °F 62 °F  
Max Temperature 70 °F 70 °F 90 °F (1931)
Min Temperature 58 °F 54 °F 37 °F (1973)
Degree Days  
Heating Degree Days 1 5  
Month to date heating degree days 62 50  
Since 1 July heating degree days 74 68  
Cooling Degree Days 0 2  
Month to date cooling degree days 65 61  
Year to date cooling degree days 686 619  
Growing Degree Days 12 (Base 50)    
Moisture  
Dew Point 60 °F    
Average Humidity 79    
Maximum Humidity 93    
Minimum Humidity 64    
Precipitation  
Precipitation 1.95 in 0.17 in 1.95 in (2013)
Month to date precipitation 3.95 3.10  
Year to date precipitation 37.82 28.93  
Snow  
Snow 0.00 in 0.00 in - ()
Month to date snowfall 0.0 0.0  
Since 1 July snowfall 0.0 0.0  
Since 1 September snowfall 0.0 0.0  
Snow Depth 0.00 in    
Sea Level Pressure  
Sea Level Pressure 29.71 in    
Wind  
Wind Speed 7 mph (WSW)    
Max Wind Speed 26 mph    
Max Gust Speed 48 mph    
Visibility 7 miles    
Events Fog , Rain    
T = Trace of Precipitation, MM = Missing Value Source: NWS Daily Summary

Daily Weather History Graph

Daily Weather History Graph

Search for Another Location

Airport or City:

Astronomy

Sep. 21, 2013 Rise Set
Actual Time 7:07 AM EDT 7:19 PM EDT
Civil Twilight 6:39 AM EDT 7:47 PM EDT
Nautical Twilight 6:06 AM EDT 8:19 PM EDT
Astronomical Twilight 5:33 AM EDT 8:53 PM EDT
Moon 8:25 PM EDT 9:27 AM EDT
Length of Visible Light 13h 07m
Length of Day
12h 12m
Waning Gibbous, 94% of the Moon is Illuminated
Sep 21
Waning Gibbous
Sep 26
Last Quarter
Oct 4
New
Oct 11
First Quarter
Oct 18
Full

Hourly Weather History & Observations

Time (EDT) Temp. Dew Point Humidity Pressure Visibility Wind Dir Wind Speed Gust Speed Precip Events Conditions
12:23 AM 71.6 °F 66.2 °F 83% 29.78 in 10.0 mi WSW 8.1 mph - 0.00 in   Overcast
12:51 AM 70.0 °F 66.0 °F 87% 29.76 in 6.0 mi SSW 9.2 mph - 0.01 in Rain Light Rain
1:51 AM 70.0 °F 66.0 °F 87% 29.75 in 7.0 mi SSW 6.9 mph - 0.02 in Rain Light Rain
2:10 AM 69.8 °F 66.2 °F 88% 29.75 in 10.0 mi SSW 8.1 mph - 0.03 in Rain Light Rain
2:51 AM 70.0 °F 66.0 °F 87% 29.73 in 10.0 mi SW 6.9 mph - 0.03 in   Overcast
3:15 AM 69.8 °F 66.2 °F 88% 29.74 in 10.0 mi SW 4.6 mph - N/A   Overcast
3:27 AM 69.8 °F 66.2 °F 88% 29.73 in 10.0 mi WSW 3.5 mph - N/A   Overcast
3:39 AM 69.8 °F 66.2 °F 88% 29.73 in 10.0 mi WSW 4.6 mph - N/A   Overcast
3:47 AM 69.8 °F 66.2 °F 88% 29.73 in 10.0 mi SW 5.8 mph - 0.00 in Rain Light Rain
3:51 AM 69.1 °F 64.9 °F 87% 29.72 in 10.0 mi WSW 5.8 mph - 0.00 in Rain Light Rain
4:51 AM 68.0 °F 64.9 °F 90% 29.70 in 10.0 mi Calm Calm - 0.00 in Rain Light Rain
5:24 AM 68.0 °F 64.4 °F 88% 29.70 in 10.0 mi Calm Calm - 0.00 in   Overcast
5:49 AM 68.0 °F 64.4 °F 88% 29.70 in 10.0 mi Calm Calm - 0.00 in   Overcast
5:51 AM 68.0 °F 64.9 °F 90% 29.68 in 10.0 mi Calm Calm - 0.00 in   Overcast
6:51 AM 68.0 °F 64.9 °F 90% 29.66 in 8.0 mi Calm Calm - 0.00 in   Overcast
7:05 AM 68.0 °F 66.2 °F 94% 29.67 in 7.0 mi Calm Calm - N/A   Overcast
7:33 AM 68.0 °F 66.2 °F 94% 29.66 in 1.0 mi Calm Calm - 0.01 in Rain Rain
7:41 AM 66.2 °F 64.4 °F 94% 29.71 in 1.0 mi West 26.5 mph 48.3 mph 0.18 in Rain Heavy Rain
7:46 AM 62.6 °F 60.8 °F 94% 29.71 in 0.5 mi NW 13.8 mph 48.3 mph 0.54 in Fog , Rain Heavy Rain
7:51 AM 62.1 °F 60.1 °F 93% 29.70 in 1.0 mi WNW 11.5 mph 28.8 mph 0.87 in Rain Heavy Rain
8:15 AM 62.6 °F 60.8 °F 94% 29.70 in 1.0 mi Calm Calm - 0.27 in Rain Heavy Rain
8:28 AM 62.6 °F 60.8 °F 94% 29.70 in 3.0 mi Calm Calm - 0.32 in Rain Rain
8:51 AM 62.1 °F 60.1 °F 93% 29.69 in 4.0 mi SW 3.5 mph - 0.35 in Rain Light Rain
9:51 AM 62.1 °F 59.0 °F 90% 29.70 in 3.0 mi SE 5.8 mph - 0.12 in Rain Rain
10:51 AM 62.1 °F 60.1 °F 93% 29.70 in 5.0 mi South 8.1 mph - 0.10 in Rain Rain
11:07 AM 62.6 °F 59.0 °F 88% 29.72 in 2.0 mi SSW 6.9 mph - 0.05 in Rain Heavy Rain
11:21 AM 62.6 °F 59.0 °F 88% 29.71 in 5.0 mi SSE 6.9 mph - 0.08 in Rain Light Rain
11:51 AM 62.1 °F 59.0 °F 90% 29.70 in 5.0 mi SSE 5.8 mph - 0.11 in Rain Light Rain
12:51 PM 62.1 °F 59.0 °F 90% 29.68 in 4.0 mi ESE 9.2 mph - 0.13 in Rain Rain
1:51 PM 62.1 °F 59.0 °F 90% 29.65 in 5.0 mi SSE 10.4 mph - 0.10 in Rain Rain
2:51 PM 62.1 °F 57.9 °F 86% 29.65 in 10.0 mi South 6.9 mph - 0.09 in Rain Light Rain
3:07 PM 62.6 °F 59.0 °F 88% 29.66 in 2.5 mi SSW 11.5 mph - 0.03 in Rain Rain
3:14 PM 62.6 °F 59.0 °F 88% 29.66 in 7.0 mi South 8.1 mph - 0.03 in Rain Light Rain
3:51 PM 62.1 °F 59.0 °F 90% 29.66 in 10.0 mi SW 10.4 mph - 0.05 in Rain Light Rain
4:02 PM 62.6 °F 59.0 °F 88% 29.67 in 10.0 mi WSW 6.9 mph - 0.00 in   Overcast
4:51 PM 64.9 °F 60.1 °F 84% 29.67 in 8.0 mi West 10.4 mph - 0.00 in   Mostly Cloudy
5:31 PM 64.4 °F 57.2 °F 77% 29.69 in 10.0 mi NW 13.8 mph - N/A   Mostly Cloudy
5:51 PM 63.0 °F 57.0 °F 81% 29.69 in 10.0 mi NW 12.7 mph 20.7 mph N/A   Mostly Cloudy
6:51 PM 62.1 °F 54.0 °F 75% 29.72 in 10.0 mi NW 11.5 mph - N/A   Overcast
7:38 PM 60.8 °F 51.8 °F 72% 29.74 in 10.0 mi NW 9.2 mph - N/A   Overcast
7:51 PM 61.0 °F 53.1 °F 75% 29.75 in 10.0 mi NNW 4.6 mph - N/A   Overcast
8:51 PM 61.0 °F 50.0 °F 67% 29.77 in 10.0 mi NNW 8.1 mph - N/A   Mostly Cloudy
9:51 PM 59.0 °F 50.0 °F 72% 29.78 in 10.0 mi North 4.6 mph - N/A   Scattered Clouds
10:51 PM 60.1 °F 48.9 °F 67% 29.79 in 10.0 mi North 8.1 mph - N/A   Overcast
11:42 PM 59.0 °F 48.2 °F 67% 29.80 in 10.0 mi North 9.2 mph - 0.00 in   Overcast
11:51 PM 59.0 °F 48.0 °F 67% 29.80 in 10.0 mi North 10.4 mph - 0.00 in   Overcast